GFSCGP_con_mucape_000.txt.gz
CAPE
0 0 0 0 0 0 0 0 0 0 0 0 0 0 0 0 1 0 0 0 0 0 0 0 2 11 0 0 4 21 9 50 92 68 58 39 14 28 18 118 80 58 40 11
0 0 0 0 0 0 0 0 0 0 0 0 0 0 0 1 1 1 0 0 0 0 0 0 0 0 0 0 1 25 31 30 90 0 111 176 38 26 70 81 69 53 53 69
0 0 0 0 0 0 0 0 0 0 0 0 0 0 0 0 0 0 0 0 0 0 0 4 0 0 0 0 0 52 72 58 15 68 63 32 0 14 35 60 39 22 10 17
0 0 0 0 0 0 0 0 0 0 0 0 0 0 0 0 0 0 0 0 0 0 1 0 0 0 0 0 0 62 28 45 0 9 11 100 73 59 29 2 5 14 9 24
0 0 0 0 0 0 0 0 0 0 0 0 0 0 0 0 0 0 0 0 0 0 0 0 0 0 0 0 0 0 52 13 14 17 29 167 22 41 0 0 3 34 50 74
0 0 0 0 0 0 0 0 0 0 0 0 0 0 0 0 0 0 0 0 0 0 0 0 0 0 0 0 0 31 0 3 78 111 20 26 1 0 0 2 0 11 23 64
0 0 0 0 0 0 0 0 0 0 0 0 0 0 0 0 0 0 0 0 0 0 0 0 0 0 0 0 0 0 0 8 20 34 4 3 29 0 0 0 0 0 6 39
0 0 0 0 0 0 0 0 0 0 0 0 0 0 0 0 0 0 0 0 0 0 0 0 0 0 0 0 0 0 1 0 0 1 0 16 7 0 0 0 10 0 0 0
0 0 0 0 0 0 0 0 0 0 0 0 0 0 0 0 0 0 0 0 0 0 0 0 0 0 0 0 0 0 0 0 0 0 0 37 11 1 3 2 0 0 0 0
0 0 0 0 0 0 0 0 0 0 0 0 0 0 0 0 0 0 0 0 0 0 0 6 0 0 0 0 0 0 0 0 0 0 0 54 28 51 32 0 9 0 0 0
0 0 0 0 0 0 0 0 0 0 0 0 0 0 0 0 0 0 0 0 0 0 5 1 0 0 0 0 0 0 0 0 0 0 0 45 92 75 68 3 0 3 0 0
0 0 0 0 0 0 0 0 0 0 0 0 0 0 0 0 0 0 0 0 0 2 5 0 0 0 0 0 0 0 0 0 0 0 0 6 69 55 25 0 0 0 0 0
0 0 0 0 0 0 0 0 0 0 0 0 0 0 0 0 0 0 2 17 0 26 0 0 0 0 0 0 0 0 0 0 0 0 0 38 24 25 92 3 0 0 0 21
0 0 0 0 0 0 0 0 0 0 0 0 0 0 0 0 0 1 25 46 6 4 0 0 0 0 0 0 0 0 0 0 0 0 0 12 3 8 27 0 0 0 6 46
0 0 0 0 0 0 0 0 0 0 0 0 0 0 0 13 16 36 81 49 3 0 0 0 0 0 0 0 0 0 0 0 0 0 0 3 21 0 15 1 1 0 11 33
0 0 0 0 0 0 0 0 0 0 0 0 0 0 0 0 11 87 59 38 4 0 0 0 0 0 0 0 0 0 0 0 0 0 0 0 0 14 12 0 5 2 3 33
0 0 0 0 0 0 0 0 0 0 0 0 0 0 0 0 33 68 67 36 17 0 0 0 0 0 0 0 0 0 0 0 0 0 0 0 0 4 5 0 0 8 0 8
0 0 0 0 0 0 0 0 0 0 0 0 0 0 0 0 0 67 53 54 33 1 0 0 0 0 0 0 0 0 0 0 0 0 0 0 3 1 0 0 0 1 0 0
0 0 0 0 0 0 0 0 0 0 0 0 0 0 0 0 0 0 26 61 39 14 3 0 0 0 0 0 0 0 0 0 0 0 0 0 0 8 0 0 0 0 0 0
0 0 0 0 0 0 3 25 1 13 0 0 0 0 0 0 0 21 2 51 51 74 6 0 0 0 0 0 0 0 0 0 0 0 0 0 0 21 51 14 0 0 0 0
2 1 0 4 3 8 11 33 18 8 0 8 0 0 0 0 0 27 35 43 93 98 48 0 0 0 0 0 0 0 0 0 0 0 0 0 0 0 80 27 0 0 0 0
6 20 4 35 62 35 0 77 137 0 0 0 5 0 0 0 0 9 36 39 102 127 70 11 2 0 0 0 0 0 0 0 0 0 0 0 0 0 2 42 0 2 0 4
37 54 38 23 20 3 26 51 106 14 27 0 0 0 0 3 0 0 0 50 97 160 89 25 4 18 17 8 0 0 0 0 0 0 0 0 0 0 4 34 0 16 7 0
11 50 48 21 51 14 68 42 87 62 41 24 3 0 0 0 0 0 0 0 46 169 93 66 29 40 65 17 16 8 0 0 0 0 0 0 0 0 38 56 19 58 131 129
0 28 74 47 38 28 13 6 86 111 104 32 6 0 0 0 0 37 4 0 33 114 106 111 59 70 93 57 39 32 0 0 0 0 0 0 0 0 50 125 117 127 119 114
0 7 32 80 51 39 9 20 49 60 92 38 16 17 0 0 0 0 25 13 14 106 173 156 132 129 133 78 62 57 13 0 0 0 0 0 0 0 30 108 88 88 38 13

GFSCGP_con_mucape_003.txt.gz
CAPE
0 0 0 0 0 0 0 0 0 0 0 0 0 0 0 0 0 0 0 0 0 0 0 0 0 11 3 0 0 0 0 3 58 117 0 138 31 0 0 7 75 67 51 21
0 0 0 0 0 0 0 0 0 0 0 0 0 0 0 0 0 0 0 0 0 0 0 0 4 11 3 0 0 0 1 18 47 21 3 119 73 0 7 35 55 71 48 55
0 0 0 0 0 0 0 0 0 0 0 0 0 0 0 0 0 0 0 0 0 0 0 3 19 15 0 0 0 0 0 4 33 1 53 39 0 2 1 11 25 39 12 18
0 0 0 0 0 0 0 0 0 0 0 0 0 0 0 0 0 0 0 0 0 0 0 1 10 0 0 0 0 0 10 12 0 37 1 7 40 13 0 1 11 13 7 39
0 0 0 0 0 0 0 0 0 0 0 0 0 0 0 0 0 0 0 0 0 0 0 0 0 0 0 0 0 3 5 6 5 6 36 85 0 0 0 7 0 10 30 33
0 0 0 0 0 0 0 0 0 0 0 0 0 0 0 0 0 0 0 0 0 0 0 0 0 0 0 0 0 0 16 0 1 21 21 7 0 0 0 0 0 3 11 67
0 0 0 0 0 0 0 0 0 0 0 0 0 0 0 0 0 0 0 0 0 0 0 0 0 0 0 0 0 0 0 0 31 95 16 0 0 0 0 7 2 0 8 32
0 0 0 0 0 0 0 0 0 0 0 0 0 0 0 0 0 0 0 0 0 0 0 0 0 0 0 0 0 0 0 0 10 44 2 0 0 0 1 0 5 0 0 1
0 0 0 0 0 0 0 0 0 0 0 0 0 0 0 0 0 0 0 0 0 0 0 0 0 0 0 0 0 0 0 0 0 8 0 0 3 3 8 0 0 0 0 0
0 0 0 0 0 0 0 0 0 0 0 0 0 0 0 0 0 0 0 0 0 0 0 0 0 0 0 0 0 0 0 0 0 2 0 9 16 44 14 0 0 0 0 0
0 0 0 0 0 0 0 0 0 0 0 0 0 0 0 0 0 0 0 0 0 0 0 0 0 0 0 0 0 0 0 0 0 0 0 7 10 49 19 1 0 0 0 0
0 0 0 0 0 0 0 0 0 0 0 0 0 0 0 0 0 0 0 0 2 0 0 0 0 0 0 0 0 0 0 0 0 0 0 12 15 24 16 0 0 0 0 0
0 0 0 0 0 0 0 0 0 0 0 0 0 0 0 0 0 0 0 0 0 0 0 0 0 0 0 0 0 0 0 0 0 0 0 7 2 1 5 0 0 0 0 0
0 0 0 0 0 0 0 0 0 0 0 0 0 0 0 0 0 0 0 0 5 0 0 0 0 0 0 0 0 0 0 0 0 0 0 3 0 8 0 0 0 0 0 0
0 0 0 0 0 0 0 0 0 0 0 0 0 0 0 0 0 0 0 4 11 0 0 0 0 0 0 0 0 0 0 0 0 0 0 0 0 1 0 0 0 0 0 0
0 0 0 0 0 0 0 0 0 0 0 0 0 0 0 0 0 0 0 7 3 0 0 0 0 0 0 0 0 0 0 0 0 0 0 0 0 0 0 0 0 0 0 0
0 0 0 0 0 0 0 0 0 0 0 0 0 0 0 2 1 0 11 25 6 0 0 0 0 0 0 0 0 0 0 0 0 0 0 0 0 0 0 0 0 0 0 0
0 0 0 0 0 0 0 0 0 0 0 0 0 0 0 0 1 6 30 46 10 0 0 0 0 0 0 0 0 0 0 0 0 0 0 0 0 0 0 0 0 0 0 0
0 0 0 0 0 0 0 0 0 0 0 0 0 0 0 0 0 17 54 74 5 0 0 0 0 0 0 0 0 0 0 0 0 0 0 0 0 0 0 0 0 0 0 0
0 0 0 0 0 0 0 0 0 0 0 0 0 0 0 0 0 18 63 69 13 3 0 0 0 0 0 0 0 0 0 0 0 0 0 0 0 0 0 0 0 0 0 0
13 0 0 3 0 0 0 0 0 0 0 0 0 0 0 0 0 0 0 35 28 12 0 0 0 0 0 0 0 0 0 0 0 0 0 0 0 0 0 0 0 0 0 0
7 5 1 40 0 1 0 3 1 0 0 0 0 0 0 0 0 0 0 0 10 24 6 0 0 0 0 0 0 0 0 0 0 0 0 0 0 0 12 36 0 0 0 0
3 9 9 42 25 0 0 0 0 0 0 0 0 0 0 0 0 0 0 0 4 46 9 1 0 0 0 0 0 0 0 0 0 0 0 0 0 0 0 21 0 0 0 0
0 0 3 56 42 0 0 1 5 1 0 0 0 0 0 0 0 0 0 0 0 60 21 4 0 0 0 0 0 0 0 0 0 0 0 0 0 0 0 30 0 0 0 0
0 0 8 67 41 22 15 7 5 0 0 0 0 0 0 0 0 0 0 0 0 37 47 24 0 0 0 0 0 0 0 0 0 0 0 0 0 0 0 0 3 0 1 0
0 0 12 141 48 16 19 55 29 21 10 0 0 0 0 0 0 0 0 0 0 0 63 57 25 2 12 16 1 0 0 0 0 0 0 0 0 0 0 0 0 0 1 12

GFSCGP_con_mucape_006.txt.gz
CAPE
0 0 0 0 0 0 0 0 0 0 0 0 0 0 0 0 0 0 0 0 0 0 0 0 0 0 3 9 6 1 0 0 0 0 22 13 38 21 5 0 13 47 49 23
0 0 0 0 0 0 0 0 0 0 0 0 0 0 0 0 0 0 0 0 0 0 0 0 0 0 6 16 1 0 0 0 0 14 5 25 30 12 0 23 45 45 30 12
0 0 0 0 0 0 0 0 0 0 0 0 0 0 0 0 0 0 0 0 0 0 0 0 0 4 5 15 0 0 0 0 3 11 2 0 2 0 0 0 8 8 6 9
0 0 0 0 0 0 0 0 0 0 0 0 2 0 0 0 0 0 0 0 0 0 0 0 0 0 1 0 0 0 0 0 8 2 1 0 14 0 0 0 0 0 0 10
0 0 0 0 0 0 0 0 0 0 0 0 0 0 0 0 0 0 0 0 0 0 0 0 0 0 0 0 0 0 0 0 0 0 11 31 2 0 0 0 0 0 0 18
0 0 0 0 0 0 0 0 0 0 0 0 0 0 0 0 0 0 0 0 0 0 0 0 0 0 0 0 0 0 0 1 0 0 10 7 0 0 0 0 0 0 2 53
0 0 0 0 0 0 0 0 0 0 0 0 0 0 0 0 0 0 0 0 0 0 0 0 0 0 0 0 0 0 0 0 0 0 37 0 0 0 0 0 0 0 1 40
0 0 0 0 0 0 0 0 0 0 0 0 0 0 0 0 0 0 0 0 0 0 0 0 0 0 0 0 0 0 0 0 0 12 5 0 0 0 0 0 0 0 0 4
0 0 0 0 0 0 0 0 0 0 0 0 0 0 0 0 0 0 0 0 0 0 0 0 0 0 0 0 0 0 0 0 0 3 0 0 0 1 0 0 0 0 0 0
0 0 0 0 0 0 0 0 0 0 0 0 0 0 0 0 0 0 0 0 0 0 0 0 0 0 0 0 0 0 0 0 0 0 0 2 0 29 0 0 0 0 0 0
0 0 0 0 0 0 0 0 0 0 0 0 0 0 0 0 0 0 0 0 0 0 0 0 0 0 0 0 0 0 0 0 0 0 0 4 11 39 0 0 0 0 0 0
0 0 0 0 0 0 0 0 0 0 0 0 0 0 0 0 0 0 0 0 0 2 0 0 0 0 0 0 0 0 0 0 0 0 0 5 19 31 0 0 0 0 0 0
0 0 0 0 0 0 0 0 0 0 0 0 0 0 0 0 0 0 0 0 2 0 0 0 0 0 0 0 0 0 0 0 0 0 0 3 17 5 0 0 0 0 0 0
0 0 0 0 0 0 0 0 0 0 0 0 0 0 0 0 0 0 0 0 2 0 0 0 0 0 0 0 0 0 0 0 0 0 0 0 3 1 0 0 0 0 0 0
0 0 0 0 0 0 0 0 0 0 0 0 0 0 0 0 0 0 0 0 0 0 0 0 0 0 0 0 0 0 0 0 0 0 0 0 0 0 0 0 0 0 0 0
0 0 0 0 0 0 0 0 0 0 0 0 0 0 0 0 0 0 0 0 2 0 0 0 0 0 0 0 0 0 0 0 0 0 0 0 0 0 0 0 0 0 0 0
0 0 0 0 0 0 0 0 0 0 0 0 0 0 0 0 0 0 0 0 7 3 0 0 0 0 0 0 0 0 0 0 0 0 0 0 0 0 0 0 0 0 0 0
0 0 0 0 0 0 0 0 0 0 0 0 0 0 0 0 0 0 0 0 5 5 0 0 0 0 0 0 0 0 0 0 0 0 0 0 0 0 0 0 0 0 0 0
0 0 0 0 0 0 0 0 0 0 0 0 0 0 0 0 0 0 0 0 0 9 0 0 0 0 0 0 0 0 0 0 0 0 0 0 0 0 0 0 0 0 0 0
0 0 0 0 0 0 0 0 0 0 0 0 0 0 0 0 0 0 0 0 0 5 0 0 0 0 0 0 0 0 0 0 0 0 0 0 0 0 0 0 0 0 0 0
0 0 0 0 0 0 0 0 0 0 0 0 0 0 0 0 0 0 0 0 0 5 0 0 0 0 0 0 0 0 0 0 0 0 0 0 0 0 0 0 0 0 0 0
0 0 0 0 0 0 0 0 0 0 0 0 0 0 0 0 0 0 0 0 0 3 0 0 0 0 0 0 0 0 0 0 0 0 0 0 0 0 0 0 0 0 0 0
0 0 0 0 0 0 0 0 0 0 0 0 0 0 0 0 0 0 0 0 0 0 0 0 0 0 0 0 0 0 0 0 0 0 0 0 0 0 0 0 0 0 0 0
0 0 2 0 0 0 0 0 0 0 0 0 0 0 0 0 0 0 0 0 0 0 0 0 0 0 0 0 0 0 0 0 0 0 0 0 0 0 0 7 26 0 0 0
0 0 0 0 0 0 0 0 0 0 0 0 0 0 0 0 0 0 0 0 0 0 0 0 0 0 0 0 0 0 0 0 0 0 0 0 0 0 0 0 0 7 0 0
0 0 0 12 7 0 0 6 5 0 0 0 0 0 0 0 0 0 0 0 0 0 0 2 0 0 0 0 0 0 0 0 0 0 0 0 0 0 0 0 0 0 0 0

GFSCGP_con_mucape_009.txt.gz
CAPE
0 0 0 0 0 0 0 0 0 0 0 0 0 0 0 0 0 0 0 0 0 0 0 0 0 0 0 0 0 54 148 145 96 43 72 192 305 343 356 399 433 486 566 428
0 0 0 0 0 0 0 0 0 0 0 0 0 0 0 0 0 0 0 0 0 0 0 0 0 0 0 0 0 27 106 98 101 112 178 285 411 410 372 411 452 535 536 456
0 0 0 0 0 0 0 0 0 0 0 0 0 0 0 0 0 0 0 0 0 0 0 0 0 0 0 0 7 14 43 100 120 143 185 263 215 274 371 307 354 302 197 175
0 0 0 0 0 0 0 0 0 0 0 0 0 0 0 0 0 0 0 0 0 0 0 0 0 0 0 0 0 0 54 116 160 142 267 453 498 529 300 288 212 223 54 173
0 0 0 0 0 0 0 0 0 0 0 0 0 0 0 0 0 0 0 0 0 0 0 0 0 0 0 0 0 4 84 150 145 186 240 424 677 281 228 169 259 217 247 230
0 0 0 0 0 0 0 0 0 0 0 0 0 0 0 0 0 0 0 0 0 0 0 0 0 0 0 0 0 2 54 151 139 225 299 649 503 345 171 200 211 171 227 267
0 0 0 0 0 0 0 0 0 0 0 0 0 0 0 0 0 0 0 0 0 0 0 0 0 0 0 0 0 0 61 62 135 189 290 358 304 178 128 142 146 201 257 222
0 0 0 0 0 0 0 0 0 0 0 0 0 0 0 0 0 0 0 0 0 0 0 0 0 0 0 0 0 2 66 60 99 209 357 145 190 38 2 34 89 50 210 272
0 0 0 0 0 0 0 0 0 0 0 0 0 0 0 0 0 0 0 0 0 0 0 0 0 0 0 0 10 33 60 79 168 244 256 160 145 0 49 88 45 15 151 194
0 0 0 0 0 0 0 0 0 0 0 0 0 0 0 0 0 0 0 0 0 0 0 0 0 0 0 0 7 34 13 58 142 62 232 147 80 2 59 50 36 58 98 133
0 0 0 0 0 0 0 0 0 0 0 0 0 0 0 0 0 0 0 0 0 0 0 0 0 0 0 0 0 0 0 2 0 8 130 162 82 12 47 31 8 3 37 54
0 0 0 0 0 0 0 0 0 0 0 0 0 0 0 0 0 0 0 0 0 0 0 0 0 0 0 0 0 0 0 0 0 40 22 150 193 49 49 12 0 1 6 25
0 0 0 0 0 0 0 0 0 0 0 0 0 0 0 0 0 0 0 0 0 0 0 0 0 0 0 0 0 0 0 0 0 0 21 352 272 181 105 6 0 2 1 31
0 0 0 0 0 0 0 0 0 0 0 0 0 0 0 0 0 0 0 0 0 0 0 0 0 0 0 0 0 0 0 0 0 0 20 323 227 113 16 0 0 2 32 81
0 0 0 0 0 0 0 0 0 0 0 0 0 0 0 0 0 0 0 0 0 0 0 0 0 0 0 0 0 0 0 0 0 0 69 223 196 39 0 2 2 33 98 179
0 0 0 0 0 0 0 0 0 0 0 0 0 0 0 0 0 0 0 0 0 0 0 0 0 0 0 0 0 0 0 0 0 1 106 25 52 0 38 30 57 83 144 244
0 0 0 0 0 0 0 0 0 0 0 0 0 0 0 0 0 0 0 0 0 0 0 0 0 0 0 0 0 0 0 0 0 0 49 17 26 6 27 28 77 105 187 292
0 0 0 0 0 0 0 0 0 0 0 0 0 0 0 0 0 0 0 1 3 0 2 0 0 0 0 0 0 0 0 0 0 0 43 2 7 0 17 44 110 118 172 302
0 0 0 0 0 0 0 0 0 0 0 0 0 0 0 0 0 0 0 0 7 78 9 0 0 0 0 0 0 0 0 0 0 0 22 0 25 2 3 88 130 10 70 86
0 0 0 0 0 0 0 0 0 0 0 0 0 0 0 0 0 0 0 0 0 4 2 0 0 0 0 0 0 0 0 0 0 0 0 0 24 23 79 230 35 0 26 8
0 0 0 0 0 0 0 0 0 0 0 0 0 0 0 0 0 0 0 0 0 0 1 0 0 0 0 0 0 0 0 0 0 0 0 0 0 131 174 273 8 0 0 0
0 0 0 0 0 0 0 0 0 0 0 0 0 0 0 0 0 0 0 0 0 0 0 0 0 0 0 0 0 0 0 0 0 0 0 0 0 31 32 176 22 0 0 0
0 0 0 0 0 0 0 0 0 0 0 0 0 0 0 0 0 0 0 0 0 0 0 0 0 0 0 0 0 0 0 0 0 0 0 0 0 0 18 69 62 0 0 0
0 0 0 0 0 0 0 0 0 0 0 0 0 0 0 0 0 0 0 0 0 0 0 0 0 0 0 0 0 0 0 0 0 0 0 0 0 0 0 6 30 0 0 0
0 0 2 2 0 0 0 0 0 0 0 0 0 0 0 0 0 0 0 0 0 0 0 1 0 0 0 0 0 0 0 0 0 0 0 0 0 0 8 19 7 21 0 0
0 0 0 0 2 0 0 0 0 2 0 0 0 0 0 0 0 0 0 0 0 0 0 0 0 0 0 0 0 0 0 0 0 0 0 0 0 0 0 15 0 1 20 0

GFSCGP_con_mucape_015.txt.gz
CAPE
0 0 0 0 0 0 0 0 0 0 1 22 0 27 60 24 6 3 0 0 0 0 0 12 6 57 160 271 719 1182 1597 2925 2695 2053 1462 954 570 687 528 639 739 931 1012 1322
0 0 0 0 0 0 0 0 0 0 0 47 24 41 35 17 8 0 0 0 0 0 0 0 0 417 292 548 749 842 1310 2277 2443 1750 1472 824 825 449 597 612 827 990 924 968
0 0 0 0 0 0 0 0 0 0 0 15 17 6 0 0 0 0 0 0 0 0 0 0 0 507 414 575 752 877 1187 1936 2018 1727 1235 778 725 649 681 408 702 1086 822 1052
0 0 0 0 0 0 0 0 0 0 0 0 3 0 0 0 0 0 0 0 0 0 0 0 2 559 581 646 779 968 1317 1323 994 1522 1279 1837 817 463 327 642 480 777 579 580
0 0 0 0 0 0 0 0 0 0 0 0 0 0 0 0 0 0 0 0 0 0 0 0 163 536 568 656 825 1048 1123 905 972 862 1387 676 669 283 424 258 629 899 756 500
0 0 0 0 0 0 0 0 1 12 0 0 0 0 0 0 0 0 0 0 0 0 1 65 510 552 591 605 789 922 853 807 767 551 644 848 624 411 307 531 867 1004 975 865
0 0 1 0 0 0 0 7 2 1 0 0 0 0 0 0 0 0 0 0 0 82 303 446 490 512 529 620 699 742 686 761 587 530 606 629 723 782 803 668 1029 719 591 911
0 0 0 0 0 0 0 0 0 0 0 0 0 0 0 0 0 0 0 0 158 361 420 446 455 503 534 584 579 480 601 549 461 500 508 586 708 621 438 734 587 1131 646 826
15 0 0 0 0 0 0 1 0 1 7 9 9 1 0 0 0 0 0 0 230 491 548 540 539 524 517 482 467 488 504 434 417 385 553 545 709 419 962 708 425 497 598 551
97 25 1 3 0 0 1 0 0 0 2 8 13 15 0 1 1 0 14 5 131 538 573 559 531 498 464 420 394 490 453 404 290 375 464 577 576 559 555 520 397 743 533 183
5 108 57 26 26 0 0 7 0 0 0 14 26 2 0 1 24 9 11 77 473 615 522 487 443 441 437 390 458 535 368 233 233 414 343 1017 793 524 378 378 213 683 257 474
128 56 143 61 44 1 0 3 0 1 0 1 40 25 0 0 11 118 188 403 580 508 443 416 419 422 404 452 478 428 213 138 214 260 377 797 495 554 560 394 136 307 467 191
90 121 35 170 89 13 17 1 8 1 17 20 16 0 0 6 44 85 193 460 506 456 370 372 385 385 428 486 464 153 77 45 154 250 291 520 349 612 631 361 572 40 77 45
46 58 6 143 83 19 27 20 18 6 17 28 0 11 9 35 55 107 308 495 414 333 372 370 350 356 429 428 193 23 5 24 129 171 217 788 815 577 680 625 372 27 19 17
50 10 0 23 10 100 27 17 13 20 20 13 5 1 3 65 8 5 239 369 340 343 317 363 339 342 361 262 45 0 3 8 124 133 217 935 662 544 178 393 89 29 23 44
19 37 3 0 13 27 58 28 16 22 9 2 3 0 0 0 2 0 46 229 357 370 320 352 317 333 288 113 2 1 7 11 52 106 296 460 297 167 216 160 182 116 208 282
39 36 0 23 1 11 57 35 19 15 2 5 0 0 0 8 13 13 8 49 324 400 348 372 336 401 266 60 0 1 2 25 59 164 403 310 175 132 163 188 209 328 860 925
0 0 0 0 5 20 46 29 23 31 3 4 2 5 28 1 0 0 20 91 12 420 412 433 417 494 248 16 0 0 2 4 58 197 365 252 163 131 178 266 297 430 1171 809
0 12 7 0 27 159 64 85 87 55 30 9 1 0 3 0 0 0 26 31 233 416 580 550 524 569 249 0 0 0 0 0 47 233 341 220 294 398 388 704 436 636 1073 1061
23 54 0 0 28 28 102 43 11 61 82 0 0 0 0 0 7 131 10 0 83 643 613 638 601 641 230 0 0 0 0 0 22 216 319 305 419 484 497 636 809 858 774 560
12 58 4 124 193 155 1 48 8 31 26 2 0 0 0 1 6 0 0 4 4 305 720 733 696 716 257 0 0 0 0 0 0 139 341 355 446 489 683 515 616 683 590 577
77 203 165 108 87 173 0 7 80 27 10 0 6 0 0 0 0 0 10 38 41 164 592 813 780 790 289 0 0 0 5 0 0 23 312 509 513 452 711 636 335 196 449 763
83 0 27 1 15 0 0 0 0 1 0 0 1 0 0 0 0 23 66 98 173 183 548 811 856 852 335 0 0 0 5 0 0 1 266 504 599 548 728 749 250 133 300 524
0 0 0 1 0 0 0 0 0 0 0 0 0 0 0 0 2 25 114 270 205 373 500 785 941 891 461 9 0 0 0 0 0 0 150 312 527 464 595 411 226 11 35 137
0 0 0 0 0 0 0 0 0 0 0 0 0 0 0 0 2 3 76 542 483 508 393 771 936 968 596 50 0 0 0 0 7 10 7 136 214 411 526 414 116 89 58 0
0 0 0 0 0 0 0 0 0 0 0 0 0 0 0 0 1 0 1 98 470 772 487 701 912 980 730 123 0 0 0 0 0 146 20 19 10 214 422 260 283 0 0 0

GFSCGP_con_mucape_021.txt.gz
CAPE
0 0 0 0 0 0 0 0 0 0 0 0 0 0 0 0 0 0 0 0 0 0 0 0 0 10 1 386 738 1054 1665 2241 2204 2137 1959 1727 1570 1357 1163 888 774 648 651 827
0 0 0 0 0 0 0 0 0 0 0 0 0 0 0 0 0 0 0 0 0 0 0 0 0 0 48 289 974 1582 2316 2315 2286 2015 1906 1610 1511 1308 973 987 517 550 545 534
0 0 0 0 0 0 0 0 0 0 0 0 0 0 0 0 0 0 0 0 0 0 0 0 0 0 425 636 1304 1881 2661 2329 2265 2078 1862 1671 1464 1169 840 597 531 504 512 628
0 0 0 0 0 0 0 0 0 0 0 0 0 0 0 0 0 0 0 0 0 0 0 0 0 124 541 860 1140 1345 2487 2236 2170 1919 1647 1427 1191 713 482 624 602 749 536 504
0 0 0 0 0 0 0 0 0 0 0 0 0 0 0 0 0 0 0 0 0 0 0 0 0 437 847 876 993 1717 2239 2058 1837 1572 1360 983 604 471 328 441 552 571 525 503
0 0 0 0 0 0 0 0 0 0 0 0 0 0 0 0 0 0 0 0 0 0 0 12 624 733 776 1064 1438 1860 1827 1692 1496 1316 832 517 428 437 418 414 446 414 381 381
0 0 0 0 0 0 0 0 0 0 0 0 0 0 0 0 0 0 0 0 0 80 360 576 672 742 1001 1236 1494 1533 1437 1311 1191 793 382 662 280 400 403 327 317 314 377 385
0 0 0 0 0 0 0 0 0 0 0 0 0 0 0 0 0 0 0 0 395 459 518 612 700 855 1043 1289 1245 1083 993 802 804 478 547 430 284 253 303 200 162 309 217 303
0 0 1 0 0 0 0 0 0 0 0 0 0 0 0 0 0 0 0 2 536 642 669 726 712 884 1087 1067 925 945 700 554 563 265 504 427 419 404 425 278 69 177 193 13
45 0 0 7 4 0 0 0 0 0 0 0 0 0 0 0 0 0 0 268 529 573 623 566 684 900 909 858 785 802 594 523 465 548 419 317 379 312 237 156 91 162 6 58
8 1 0 0 2 0 0 0 0 0 0 0 0 0 0 0 4 0 4 415 480 491 512 537 673 765 730 796 746 645 530 489 412 534 279 197 306 157 58 52 40 47 1 40
19 22 0 0 3 0 0 0 0 0 0 0 0 0 0 57 1 0 40 509 487 488 477 647 671 607 720 586 662 528 406 492 222 531 325 257 198 93 17 6 30 5 0 0
30 0 0 0 0 12 4 0 0 0 0 0 0 0 0 0 141 87 354 550 575 532 536 634 515 575 525 638 512 460 357 191 242 467 298 324 240 138 149 14 27 0 0 26
11 0 2 0 23 3 17 0 0 1 0 0 0 0 0 0 280 435 525 535 518 482 519 433 400 393 434 450 377 362 190 113 255 239 185 403 299 263 127 6 18 14 4 17
0 23 5 8 7 29 39 1 0 0 0 0 0 0 3 248 580 595 567 538 450 420 431 380 374 371 426 409 330 135 118 69 192 316 385 384 270 253 64 10 7 49 27 14
14 129 42 1 5 6 20 7 0 0 0 0 0 1 50 288 733 589 513 424 399 426 374 359 353 384 370 376 178 46 42 66 280 283 431 587 417 242 82 36 70 5 26 39
0 31 0 16 20 1 11 0 0 0 0 0 0 0 174 128 445 554 476 433 390 438 344 358 382 410 414 262 41 3 20 136 283 308 461 711 371 80 103 47 8 22 57 113
0 0 1 113 10 10 5 108 0 0 0 71 13 128 209 178 236 321 253 385 341 374 296 370 426 389 302 142 0 13 42 29 247 349 391 423 144 10 31 65 17 110 44 59
0 0 0 0 0 0 81 85 70 88 177 246 208 21 59 88 206 260 264 312 313 361 287 320 389 291 221 145 0 8 1 8 73 328 144 121 77 30 299 215 57 30 60 81
0 0 3 0 4 104 56 103 121 115 78 114 25 21 46 109 90 141 200 271 462 536 406 430 348 259 254 184 0 2 0 0 57 289 200 88 59 190 91 180 121 58 166 105
0 16 0 0 18 11 13 70 114 81 18 59 7 9 39 187 1 0 65 129 447 619 529 523 317 294 309 241 2 0 0 0 57 242 137 118 231 296 238 223 163 204 284 255
0 1 0 0 0 24 0 135 111 6 0 13 5 35 106 95 73 40 42 49 122 675 650 567 390 371 392 285 0 0 0 0 41 229 263 324 330 562 360 226 331 251 212 167
0 2 0 0 0 0 0 88 40 1 2 0 14 69 32 26 39 137 241 267 222 741 690 649 504 467 454 362 1 3 0 0 53 197 377 425 375 316 228 266 272 195 116 110
0 13 7 6 0 0 0 0 0 0 0 0 3 4 1 27 33 281 533 474 294 408 532 767 615 545 497 483 62 0 0 0 102 418 297 483 417 361 269 146 293 237 161 292
0 1 9 3 5 14 6 0 0 0 0 0 0 1 0 1 5 5 518 592 375 505 490 673 832 686 635 602 53 0 0 0 224 413 266 367 507 317 337 36 87 57 287 365
0 0 0 0 0 6 1 0 0 0 0 0 0 0 0 0 0 0 397 441 591 579 635 702 875 775 727 716 116 0 2 0 217 450 346 310 639 553 445 115 0 3 0 347

GFSCGP_con_mucape_024.txt.gz
CAPE
0 0 0 0 0 0 0 0 0 0 0 0 0 0 0 0 0 0 0 0 0 0 0 0 0 0 0 0 0 24 798 1071 1092 1093 1493 1308 1346 1390 1398 1343 1010 1143 1088 546
0 0 0 0 0 0 0 0 0 0 0 0 0 0 0 0 0 0 0 0 0 0 0 0 0 0 0 0 73 102 830 1430 1481 1364 1373 1495 1373 1229 1098 1043 952 850 513 560
0 0 0 0 0 0 0 0 0 0 0 0 0 0 0 0 0 0 0 0 0 0 0 0 0 0 0 27 452 885 1367 1735 1814 1750 1474 1413 1432 1290 1230 1149 943 549 473 595
0 0 0 0 0 0 0 0 0 0 0 0 0 0 0 0 0 0 0 0 0 0 0 0 0 0 4 220 966 1790 1813 1993 2003 1952 1789 1561 1482 1351 1293 1200 768 566 530 486
0 0 0 0 0 0 0 0 0 0 0 0 0 0 0 0 0 0 0 0 0 0 0 0 0 0 121 849 1676 2049 2024 2164 2134 2029 1883 1670 1483 1418 1247 479 380 402 425 482
0 0 0 0 0 0 0 0 0 0 0 0 0 0 0 0 0 0 0 0 0 0 0 0 14 296 693 1127 2042 2229 2244 2216 2091 1898 1675 1559 1340 790 402 420 493 522 549 439
1 10 0 0 0 0 0 0 0 0 0 0 0 0 0 0 0 0 0 0 0 0 0 240 459 627 835 1288 1755 2134 2103 1917 1762 1528 1326 980 629 358 379 369 413 353 302 284
0 0 0 8 2 0 0 0 0 0 0 0 0 0 0 0 0 0 0 0 0 95 270 434 597 780 1099 1521 1773 1890 1747 1573 1423 1174 754 368 298 286 261 261 268 216 259 148
0 0 28 7 8 0 0 0 0 0 0 0 0 0 0 0 0 0 0 0 113 276 469 587 774 995 1160 1411 1505 1524 1394 1241 1042 426 263 241 211 199 197 118 156 142 86 142
0 0 0 0 0 1 0 0 0 0 0 0 0 0 0 0 0 0 0 2 297 457 566 731 864 1043 1156 1173 1160 1127 981 781 369 299 294 232 211 236 260 176 19 43 30 0
1 1 0 0 0 0 0 0 0 0 0 0 0 0 0 0 0 0 0 53 460 588 650 738 889 981 941 845 784 599 402 256 279 202 198 191 116 82 66 0 4 20 0 1
14 9 0 0 0 0 7 0 0 0 0 0 0 0 0 0 0 0 10 379 565 624 609 753 883 832 669 746 582 353 345 242 291 165 162 213 99 46 6 2 1 0 0 7
11 3 0 0 0 7 4 4 0 0 0 0 0 0 5 0 0 0 209 534 503 531 628 762 761 712 697 688 447 340 326 234 255 127 89 90 56 19 13 0 0 0 0 0
35 0 0 0 0 0 0 22 0 0 0 0 0 0 4 4 6 69 288 484 509 527 647 697 662 700 646 585 416 313 339 128 239 254 148 100 45 53 10 0 0 0 0 12
4 0 0 0 1 2 0 0 10 0 0 0 0 0 18 0 0 138 392 475 479 599 654 598 590 608 465 442 357 285 235 77 245 112 211 190 167 127 0 1 2 12 14 8
2 5 40 9 9 0 0 1 19 0 0 0 0 0 0 223 65 253 450 501 509 617 632 513 563 436 471 341 316 209 93 59 200 149 234 152 148 39 14 3 3 18 21 8
10 0 18 21 67 58 0 7 8 0 0 0 0 2 1 348 486 452 544 544 550 589 530 487 445 413 378 282 274 93 86 48 177 263 438 289 75 24 19 12 2 8 28 21
0 0 0 14 13 10 40 149 98 38 0 0 25 7 0 6 359 524 565 527 520 528 495 479 412 417 386 333 197 44 42 96 180 258 549 163 1 0 7 7 0 11 17 20
5 0 0 0 0 23 127 82 32 66 100 183 172 74 85 64 222 253 367 406 479 512 488 448 409 404 392 312 15 2 41 128 146 218 392 149 9 0 6 8 1 5 8 4
0 0 0 4 13 0 43 67 19 27 94 128 168 303 289 182 164 78 22 346 510 485 471 461 427 422 390 107 0 4 29 75 171 179 235 75 1 1 38 13 8 6 14 22
0 0 0 1 2 0 1 65 135 102 100 190 171 78 99 177 201 257 292 524 524 550 448 452 468 422 251 123 5 3 0 19 110 181 114 77 19 58 0 0 24 66 116 74
0 0 0 0 1 2 0 34 61 13 180 186 266 132 75 90 70 171 239 454 588 497 438 464 471 304 237 163 5 0 0 2 23 109 86 82 49 17 0 14 37 123 103 154
1 0 0 0 0 0 0 49 40 61 43 109 162 182 0 37 280 322 204 264 538 658 579 437 387 292 286 226 7 0 0 2 40 136 113 108 148 101 76 69 179 108 121 76
0 0 0 0 0 0 0 56 44 0 15 0 17 109 116 58 352 375 299 270 606 702 756 472 361 325 363 329 12 0 0 0 46 155 101 107 224 193 192 162 125 79 64 18
0 0 1 0 0 0 0 0 0 0 0 0 12 73 77 150 397 347 471 457 518 696 809 674 458 383 402 417 198 0 0 0 86 153 112 189 246 185 144 141 131 45 46 16
0 0 0 0 0 0 0 6 0 0 1 0 2 0 95 36 214 410 465 522 596 678 626 627 739 585 410 464 323 0 0 3 98 140 173 217 224 242 156 38 98 65 90 117

GFSCGP_con_mucape_027.txt.gz
CAPE
0 0 0 0 0 0 0 0 0 0 0 0 0 0 0 0 0 0 0 0 0 0 0 0 0 0 0 0 0 0 0 163 649 882 894 859 911 921 1001 1080 1054 959 1149 833
0 0 0 0 0 0 0 0 0 0 0 0 0 0 0 0 0 0 0 0 0 0 0 0 0 0 0 0 0 0 0 162 450 706 830 848 961 1062 1140 1201 1158 1421 1071 1145
0 0 0 0 0 0 0 0 0 0 0 0 0 0 0 0 0 0 0 0 0 0 0 0 0 0 0 0 0 0 18 495 696 818 1092 1125 1058 1195 1325 1433 1486 1170 1082 1017
0 0 0 0 0 0 0 0 0 0 0 0 0 0 0 0 0 0 0 0 0 0 0 0 0 0 0 0 0 172 577 974 1146 1096 1234 1285 1287 1306 1265 1253 1157 840 708 533
0 0 0 0 0 0 0 0 0 0 0 0 0 0 0 0 0 0 0 0 0 0 0 0 0 0 0 0 293 953 1210 1431 1514 1510 1334 1373 1344 1304 1284 1209 1222 1094 374 450
0 0 0 0 0 0 0 0 0 0 0 0 0 0 0 0 0 0 0 0 0 0 0 0 0 0 9 662 1247 1455 1587 1692 1775 1796 1676 1523 1430 1359 1248 1259 1111 470 464 450
28 0 0 0 0 0 0 0 0 0 0 0 0 0 0 0 0 0 0 0 0 0 0 0 47 167 747 1326 1612 1707 1840 1961 2006 1961 1823 1659 1509 1386 1303 778 274 311 316 378
0 1 2 33 7 0 0 0 0 0 0 0 0 0 0 0 0 0 0 0 0 0 0 62 279 668 1274 1698 1728 1931 2022 2027 1944 1737 1589 1454 1284 801 438 308 353 369 335 158
40 4 61 50 23 13 0 0 0 0 0 0 0 0 0 0 0 0 0 0 0 0 48 285 604 932 1153 1542 1820 1978 1863 1697 1487 1343 1171 841 575 311 296 266 229 154 144 76
1 0 0 5 0 3 1 0 0 0 0 0 0 0 0 0 0 0 0 0 0 10 281 579 799 1025 1219 1453 1713 1733 1558 1339 1132 809 509 233 180 180 198 179 127 107 20 23
0 0 0 0 0 0 5 0 0 0 0 0 0 0 0 0 0 0 0 0 0 193 480 748 859 1006 1317 1432 1444 1310 1062 901 574 339 168 141 117 133 113 52 7 0 0 0
0 0 0 0 0 0 0 0 0 0 0 0 0 0 0 0 0 0 0 0 94 351 647 821 876 1008 1107 1154 1074 930 772 484 179 110 92 46 31 17 3 0 0 0 0 0
5 0 0 0 3 8 0 6 0 0 0 0 0 0 0 0 0 0 0 118 328 512 768 874 890 864 846 810 662 483 314 141 63 54 54 13 22 14 0 0 0 0 0 9
36 0 0 0 0 0 0 0 4 0 0 0 0 0 0 0 0 0 98 254 435 655 806 866 739 647 625 466 268 202 159 139 85 52 81 44 30 6 12 0 0 0 0 0
0 0 0 0 0 0 0 0 0 0 0 0 0 0 0 11 18 1 1 275 513 673 787 769 615 547 598 341 205 189 121 154 105 77 44 53 46 58 8 0 0 0 0 8
16 0 0 0 0 0 29 0 0 0 0 0 0 0 19 0 44 81 0 209 494 632 731 675 591 605 578 268 172 173 130 97 155 234 131 69 138 73 0 0 0 4 6 18
26 0 0 0 0 8 0 0 0 0 0 0 0 0 0 0 25 31 334 323 515 591 667 604 589 579 461 268 166 167 202 57 127 214 174 170 91 4 3 5 1 3 11 21
2 0 0 10 1 0 20 117 67 0 0 0 0 0 0 0 0 77 398 401 534 614 651 546 556 468 377 250 197 154 113 39 132 259 250 114 8 0 0 0 0 1 13 30
0 0 0 4 0 0 17 42 25 10 9 138 74 29 8 0 214 363 436 524 528 598 558 495 474 366 313 227 201 106 62 31 149 351 265 32 2 0 0 0 0 0 1 8
0 0 0 2 0 4 88 24 13 3 0 115 92 53 58 75 164 188 246 292 374 536 459 441 391 354 306 212 174 69 37 27 128 269 235 36 11 0 0 0 0 0 0 0
0 0 0 3 0 10 15 12 1 13 5 74 93 160 127 142 54 101 10 1 242 563 464 430 367 362 346 284 164 12 20 52 70 198 197 47 0 0 0 0 0 0 6 5
0 1 0 0 5 17 0 0 37 13 108 50 100 184 164 190 125 97 4 5 133 507 529 445 387 394 391 337 109 0 0 16 86 122 120 27 0 0 3 0 0 25 46 32
0 0 0 0 0 0 0 7 22 19 75 99 142 192 233 163 244 185 150 79 292 539 579 462 429 417 418 324 7 0 1 0 68 123 75 38 6 0 0 34 29 61 45 50
0 0 0 0 0 0 0 9 23 75 56 56 74 214 298 314 285 203 265 342 473 582 527 465 435 444 425 246 17 0 0 0 25 121 107 78 56 9 9 30 52 86 51 29
0 0 0 0 0 0 0 2 15 46 1 73 83 37 56 386 393 322 277 412 624 752 627 499 474 487 376 330 32 0 0 0 0 72 152 81 97 43 55 18 68 63 25 11
0 0 0 0 2 1 1 16 26 12 0 5 63 23 4 166 311 292 427 491 595 860 702 553 453 465 404 423 202 0 0 0 1 43 185 89 108 124 74 43 53 19 10 32

GFSCGP_con_mucape_030.txt.gz
CAPE
0 0 0 0 0 0 0 0 0 0 0 0 0 0 0 0 0 0 0 0 0 0 0 0 0 0 0 0 0 0 0 0 127 328 449 542 607 601 669 744 733 713 727 805
0 0 0 0 0 0 0 0 0 0 0 0 0 0 0 0 0 0 0 0 0 0 0 0 0 0 0 0 0 0 0 0 221 358 448 563 607 678 755 854 909 963 942 872
0 0 0 0 0 0 0 0 0 0 0 0 0 0 0 0 0 0 0 0 0 0 0 0 0 0 0 0 0 0 0 0 128 491 589 678 695 726 869 1024 1145 1078 1028 1148
0 0 0 0 0 0 0 0 0 0 0 0 0 0 0 0 0 0 0 0 0 0 0 0 0 0 0 0 0 0 0 0 125 474 653 719 790 854 961 1122 1212 1196 1400 1061
0 0 0 0 0 0 0 0 0 0 0 0 0 0 0 0 0 0 0 0 0 0 0 0 0 0 0 0 0 0 35 249 373 577 756 834 927 882 1017 1308 1394 1428 823 893
0 0 0 0 0 0 0 0 0 0 0 0 0 0 0 0 0 0 0 0 0 0 0 0 0 0 0 1 48 304 534 687 783 906 1011 1022 1112 1180 1289 1301 1191 951 508 576
5 0 0 0 0 0 0 0 0 0 0 0 0 0 0 0 0 0 0 0 0 0 0 0 0 0 63 238 1023 851 961 1110 1213 1307 1309 1309 1303 1309 1320 1232 1148 1049 241 346
3 0 36 9 0 0 0 0 0 0 0 0 0 0 0 0 0 0 0 0 0 0 0 0 0 156 346 1630 1470 1282 1347 1491 1593 1599 1565 1519 1476 1408 1324 1241 515 298 351 365
56 14 22 23 19 13 2 0 0 0 0 0 0 0 0 0 0 0 0 0 0 0 0 0 218 757 1701 1454 1466 1549 1628 1687 1695 1599 1476 1413 1371 1288 812 166 182 231 272 202
6 9 6 2 5 18 24 0 0 0 0 0 0 0 0 0 0 0 0 0 0 0 0 302 1295 1391 1479 1558 1639 1683 1671 1642 1515 1342 1204 964 554 269 208 223 214 145 91 33
0 0 0 0 1 2 3 0 0 0 0 0 0 0 0 0 0 0 0 0 0 0 169 896 1180 1097 1336 1618 1668 1513 1398 1231 1118 870 487 353 205 142 131 114 82 58 0 0
6 0 0 0 0 0 0 0 0 0 0 0 0 0 0 0 0 0 0 8 7 17 809 1160 964 1079 1303 1598 1547 1294 1081 833 506 209 91 73 58 42 46 30 3 0 0 0
5 0 0 0 16 0 0 0 0 0 0 0 0 0 0 0 0 0 0 10 145 722 912 845 1040 1173 1263 1352 1236 1007 731 392 177 60 15 9 1 2 4 7 0 0 0 0
43 2 0 0 0 0 0 0 0 0 0 0 0 0 0 0 0 0 0 0 212 980 1311 860 987 1053 1112 1043 889 661 373 106 13 0 0 0 3 9 7 0 0 0 0 4
25 9 0 0 0 0 0 0 0 0 0 0 0 0 0 0 0 0 0 0 264 535 804 896 898 934 899 721 548 333 117 6 0 1 0 2 17 21 18 0 0 0 0 0
1 6 0 0 0 0 0 0 0 0 0 0 0 0 0 0 0 8 6 2 260 595 828 840 710 709 635 430 233 107 51 7 0 2 7 24 36 52 4 0 0 0 1 28
2 22 0 0 0 0 0 0 0 0 0 0 0 0 0 0 9 16 10 27 252 588 771 755 527 541 430 266 149 71 62 24 37 32 32 23 45 28 0 0 0 0 7 27
39 0 0 0 0 0 0 6 0 0 0 0 0 0 0 0 0 0 0 64 346 550 709 641 443 442 381 156 119 71 22 36 83 168 98 60 57 0 0 1 0 5 16 29
4 0 0 0 0 0 0 3 19 4 0 0 0 0 0 0 0 9 129 205 405 543 585 550 444 413 295 122 90 80 85 42 63 174 136 88 2 0 0 0 0 4 18 18
0 0 0 8 2 0 4 3 12 6 0 88 58 0 1 0 48 86 258 325 443 506 519 531 456 401 291 162 96 73 109 47 95 201 114 34 7 0 0 0 0 0 0 0
0 1 0 0 2 1 0 0 0 4 0 44 4 14 4 6 2 1 261 295 320 507 526 512 464 339 254 184 137 57 51 29 17 176 157 41 11 0 0 0 0 0 2 1
0 0 0 0 0 4 0 0 0 24 30 3 2 63 67 12 20 35 8 135 142 336 524 474 416 302 231 145 94 71 28 26 15 147 154 10 0 0 0 0 0 11 26 15
0 0 0 0 0 0 0 0 3 1 4 1 38 127 131 182 168 104 11 17 29 140 362 498 405 316 312 216 113 69 21 16 28 85 84 12 0 0 0 19 18 48 59 44
0 0 0 0 0 0 0 0 0 36 13 46 60 99 188 226 220 176 44 3 8 245 251 501 433 365 373 350 261 68 3 4 23 53 60 28 3 11 27 16 33 55 53 43
0 0 0 0 0 0 0 3 24 20 28 52 63 85 196 266 217 270 135 123 237 426 472 522 478 442 410 419 358 118 0 1 4 43 56 54 47 19 30 11 33 86 37 12
0 0 0 0 0 0 0 7 25 10 0 40 100 82 166 384 266 250 199 141 351 567 634 507 459 427 438 457 370 53 0 0 0 1 58 71 85 72 55 5 37 68 40 31

GFSCGP_con_mucape_033.txt.gz
CAPE
0 0 0 0 0 0 0 0 0 0 0 0 0 0 0 0 0 0 0 0 0 0 0 0 0 0 0 0 0 78 0 0 0 278 488 662 763 818 711 689 773 723 815 804
0 0 0 0 0 0 0 0 0 0 0 0 0 0 0 0 0 0 0 0 0 0 0 0 0 0 0 0 0 14 0 0 110 398 682 795 955 739 711 677 963 1017 969 925
0 0 0 0 0 0 0 0 0 0 0 0 0 0 0 0 0 0 0 0 0 0 0 0 0 0 0 0 0 0 0 0 294 710 858 945 798 387 639 920 910 855 897 988
0 0 0 0 0 0 0 0 0 0 0 0 0 0 0 0 0 0 0 0 0 0 0 0 0 0 0 0 0 0 0 0 226 918 971 1101 1225 870 918 731 883 1089 1073 996
0 0 2 6 5 0 0 0 0 0 0 0 0 0 0 0 0 0 0 0 0 0 0 0 0 0 0 0 0 0 0 171 352 835 1075 1315 1280 1257 1267 1200 1038 1098 1285 1196
2 1 0 0 0 10 0 0 0 0 0 0 0 0 0 0 0 0 0 0 0 0 0 0 0 0 0 0 59 214 382 706 696 841 1103 1353 1337 1109 1224 1366 1382 1313 1224 1117
13 22 5 1 0 0 1 18 0 0 0 0 0 0 0 0 0 0 0 0 0 0 0 0 0 0 0 145 527 309 798 917 974 1054 1075 1157 1257 1324 1468 1463 1315 1143 928 941
88 33 0 0 3 1 0 1 0 0 0 0 0 0 0 0 0 0 0 0 0 0 0 0 0 0 219 663 576 716 1181 1072 1020 952 945 1062 1135 1262 1317 1202 1137 851 800 913
53 42 32 135 154 28 20 0 0 0 0 0 0 0 0 0 0 0 0 0 0 0 0 0 2 430 774 812 1176 1402 1283 1110 1157 1186 1257 1257 1249 1201 1160 988 900 725 804 762
25 38 40 0 76 84 15 23 0 3 0 0 0 0 0 0 0 0 0 0 0 113 0 49 275 649 1419 1483 1355 1309 1337 1373 1352 1309 1255 1246 1211 1106 698 685 670 723 713 584
53 3 11 20 13 3 5 6 35 13 0 0 0 0 0 0 0 0 0 0 27 228 68 249 893 1510 1416 1303 1423 1491 1467 1385 1316 1257 1191 1044 601 499 521 582 596 604 565 481
88 136 34 4 0 0 0 0 23 22 0 0 0 0 0 0 0 0 0 0 0 182 482 972 1250 1342 1378 1357 1533 1482 1360 1195 1036 734 490 475 450 467 520 477 459 381 341 116
107 52 30 1 110 7 0 0 6 9 0 0 0 0 0 0 0 0 0 0 0 240 935 1188 1181 1225 1269 1241 1319 1182 1050 777 368 350 371 379 366 441 473 362 271 202 138 197
98 64 15 45 6 0 1 0 0 0 0 0 0 0 0 0 0 0 0 0 0 318 1019 1497 1344 1131 1187 1243 1106 864 561 325 273 251 235 276 291 339 355 285 163 178 180 245
52 31 34 10 4 1 0 0 0 0 0 0 0 0 0 0 0 0 0 0 0 65 587 1458 1413 1012 1263 1195 964 614 318 251 189 57 133 209 212 271 251 180 96 83 164 83
47 65 22 14 0 0 0 0 0 0 0 0 0 0 0 0 0 0 0 0 0 0 472 1251 1281 963 976 905 642 401 266 196 108 75 123 149 154 215 285 234 82 27 67 467
67 104 41 9 1 0 0 0 0 0 0 0 0 0 0 0 0 0 0 0 0 1 704 1040 964 1027 884 653 503 396 211 104 142 149 167 178 188 193 151 25 41 88 311 376
67 42 23 0 0 0 0 8 3 28 49 43 0 0 0 0 0 0 0 17 0 244 757 1155 1138 1040 803 617 494 392 206 124 123 218 226 205 237 153 69 36 62 265 349 306
0 0 0 0 0 0 0 10 16 25 5 11 0 0 0 0 0 0 3 10 235 569 867 1112 1062 898 731 568 450 284 107 186 248 423 449 332 244 125 73 75 290 546 543 45
0 0 0 0 0 0 0 0 0 6 0 10 0 0 0 0 44 12 82 412 514 858 935 1038 934 805 718 584 408 183 109 167 303 525 480 308 122 100 55 131 224 450 606 413
0 0 0 0 0 0 0 0 0 0 35 28 29 32 24 1 0 3 72 381 654 878 892 971 851 836 707 378 288 242 203 249 332 542 504 219 132 111 161 166 218 396 412 240
0 0 0 0 0 0 0 0 0 0 0 50 13 42 6 4 0 0 19 377 492 500 730 875 933 865 652 323 232 218 337 324 307 593 433 208 169 12 113 180 255 377 489 397
0 0 0 0 0 0 0 0 0 0 0 18 19 29 0 7 0 6 87 276 350 485 568 757 894 771 439 298 279 222 366 285 375 651 370 321 138 130 273 368 489 481 445 308
0 0 0 0 0 0 0 0 2 23 25 27 24 26 1 6 44 83 84 96 222 348 509 574 578 579 394 282 242 295 285 227 418 650 359 376 288 266 335 323 443 507 439 225
0 0 0 0 0 0 0 0 8 16 14 20 29 13 0 99 101 135 45 19 92 187 401 570 452 581 548 308 203 278 123 226 482 626 219 485 342 386 457 355 288 500 420 256
12 0 0 0 0 0 0 1 26 6 13 18 12 9 58 121 174 168 58 21 79 141 239 394 486 454 505 311 235 161 95 245 542 620 413 505 446 462 367 184 39 36 37 9

GFSCGP_con_mucape_036.txt.gz
CAPE
0 0 0 0 0 0 0 0 0 0 0 0 0 0 0 0 0 0 0 0 0 0 0 0 0 0 0 0 240 582 978 1544 432 96 577 1024 1093 1316 1227 1213 1369 1391 1377 1368
0 0 0 0 0 0 0 0 0 0 0 0 0 0 0 0 0 0 0 0 0 0 0 0 0 0 0 0 314 715 1060 964 717 334 1118 1120 1341 1327 1469 1385 1360 1448 1441 1448
0 0 0 0 0 0 0 0 0 0 0 3 0 0 0 0 0 0 0 0 0 0 0 0 0 0 0 0 142 106 451 443 777 883 1291 1680 1756 1602 1581 1308 1328 1360 1454 1852
0 0 0 2 4 0 0 0 0 0 0 0 0 0 0 0 0 0 0 0 0 0 0 0 0 0 0 0 0 0 77 176 397 1390 2052 2498 1685 1391 1432 1631 1230 1459 1539 1305
0 21 30 10 3 9 4 14 14 31 0 0 0 0 0 0 0 0 0 0 0 0 0 0 0 0 0 0 0 0 4 32 437 1307 1843 1870 1961 1722 1810 1625 1460 1597 1507 1558
30 60 84 45 25 15 42 37 21 64 27 0 0 0 0 0 0 0 0 0 0 0 0 0 0 0 0 0 0 0 172 602 1070 1517 1800 2094 2046 1974 1986 2103 1902 1710 1659 1695
71 106 106 68 54 66 54 66 0 0 0 0 0 0 0 0 0 0 0 0 0 0 0 0 0 0 0 0 0 421 969 1303 1491 1600 1820 1986 2323 2278 2492 2329 2154 2155 1884 1843
125 18 123 64 99 108 83 71 48 0 0 0 0 0 0 0 0 0 0 0 0 0 0 0 0 0 0 0 375 977 1195 1513 1636 1820 2004 2249 2446 2421 2430 2435 2250 1973 1725 1645
148 53 9 136 244 150 149 155 127 92 30 88 2 29 0 0 0 0 0 0 0 0 6 45 9 0 100 839 1367 1744 1733 1786 1929 2132 2241 2404 2450 2519 2338 2168 1915 1549 1644 1667
80 146 84 87 2 143 188 123 93 135 0 0 0 0 0 0 0 0 0 0 0 190 333 240 200 368 1148 1625 2222 2191 2125 2144 2116 2138 2243 2276 2230 2146 2088 1791 1324 1321 1473 1341
124 125 147 95 93 70 100 202 196 209 110 11 0 0 2 0 0 0 0 0 0 128 528 724 807 1101 1489 2209 2285 2391 2271 2177 2103 1976 1954 1967 1856 1738 1501 1377 1417 1558 1552 1442
148 209 200 178 57 15 3 65 17 305 154 27 9 24 19 0 0 0 0 0 0 168 544 698 1356 1827 2100 2144 2127 2147 2106 2017 1904 1838 1800 1632 1337 1241 1332 1379 1389 1332 1158 746
183 178 225 168 214 94 47 63 12 17 140 211 16 44 38 0 0 0 0 0 0 0 718 1297 1697 1832 1627 2008 2024 1996 1870 1740 1582 1395 1285 1280 1293 1336 1340 1247 1133 844 559 340
75 238 213 300 189 90 85 82 89 160 167 95 102 14 33 6 0 0 0 0 0 0 829 1210 1574 1893 1711 1744 1799 1601 1408 1190 1051 961 1022 1081 1082 1046 972 867 756 549 342 420
83 244 212 216 214 133 68 42 42 71 96 111 49 12 21 13 0 0 0 0 0 0 149 929 1471 1596 1610 1391 1301 1147 925 778 669 472 393 455 574 632 558 476 425 361 411 392
69 319 194 222 165 139 71 23 0 11 34 79 23 0 0 0 0 0 0 0 1 0 9 849 1440 1479 1811 1017 1083 902 710 455 82 65 230 414 530 520 446 434 468 367 327 302
32 49 121 217 118 128 137 121 72 15 15 52 0 0 0 0 0 0 0 0 0 0 38 941 1401 1378 1356 1053 838 781 430 34 73 163 255 336 478 472 437 280 262 267 430 552
0 44 121 137 42 3 27 13 60 116 92 52 0 0 0 0 0 0 0 0 0 0 57 1177 1379 1442 1390 1138 959 636 73 76 115 174 258 341 355 353 246 181 203 362 557 595
0 0 12 0 0 0 0 33 92 59 42 92 22 4 1 0 0 0 0 0 0 0 461 1492 1549 1462 1183 1037 876 262 23 97 151 268 309 296 210 219 120 138 333 408 562 661
0 0 0 0 0 1 0 36 0 47 15 82 11 19 7 0 3 1 0 570 755 1011 1341 1514 1564 1458 1284 1060 696 54 141 179 282 318 289 292 213 182 217 236 378 476 315 275
0 0 0 0 0 1 0 0 0 0 82 15 20 12 47 2 0 0 0 24 555 1171 1459 1511 1460 1299 1159 913 516 43 214 340 241 457 347 328 152 103 192 321 495 541 459 442
0 0 73 0 0 0 0 0 0 13 0 0 4 1 0 42 1 0 0 306 624 1083 1468 1379 1380 1200 999 795 237 54 357 274 359 466 427 351 176 129 222 403 464 515 721 747
0 0 0 0 0 0 0 0 0 3 2 0 0 11 0 48 18 33 93 253 784 1120 1365 1419 1241 1035 779 411 44 252 477 432 565 507 361 357 188 243 433 565 626 860 976 1272
27 0 0 0 0 0 0 0 22 3 2 13 28 13 20 27 67 61 360 452 794 1076 1220 1295 894 565 351 91 47 341 530 486 595 702 469 424 399 484 491 519 866 1029 1028 720
58 5 0 0 0 0 0 3 29 18 10 6 7 3 1 5 87 109 242 566 800 773 1275 1176 504 254 116 55 198 363 451 492 667 759 562 490 500 609 625 722 595 956 905 311
54 0 0 0 21 0 0 0 11 22 9 5 6 2 1 0 49 121 255 543 660 750 843 1396 787 289 24 20 206 310 360 543 778 745 583 268 372 568 479 551 321 95 16 11

GFSCGP_con_mucape_042.txt.gz
CAPE
0 0 0 0 0 0 0 0 0 0 0 0 0 0 0 0 0 0 0 0 0 0 0 80 58 444 208 1422 2250 2178 2238 2179 2868 2482 1477 1058 1143 1088 1670 1979 2668 3107 2599 2223
0 0 0 0 0 0 0 0 0 0 0 0 0 0 0 0 0 0 0 0 0 0 15 17 115 579 1451 1789 1696 1865 2399 2731 2595 1759 1317 1785 1506 741 1324 2292 2775 3162 2797 2323
0 0 0 0 0 0 0 0 0 0 0 0 0 0 0 0 0 0 0 0 0 0 0 2 197 552 1244 1109 1475 1739 1844 1839 2129 1394 1495 1963 1672 2875 3326 2752 2813 2915 2667 2504
0 0 0 0 0 0 0 0 0 0 0 0 0 0 0 0 0 0 0 0 0 0 0 0 0 114 596 555 810 1825 1695 1490 1643 2298 1820 1748 1406 1446 2278 2945 2624 2630 2485 2290
0 0 0 0 0 0 0 1 2 1 0 0 0 0 0 0 0 0 0 0 0 0 0 0 0 0 10 46 59 366 1450 1817 1607 1820 1929 1395 2173 2191 3383 3237 3288 2340 2556 2074
7 7 21 37 25 25 13 3 19 17 13 0 0 0 0 0 0 0 0 19 8 0 0 0 0 0 0 0 19 318 617 767 1677 1979 2824 2487 2740 2478 2501 2932 2399 1798 1736 1471
12 35 44 43 46 35 118 37 0 0 0 0 0 0 0 0 0 0 0 7 3 8 38 5 0 0 0 0 0 0 678 1106 2062 1741 2593 1943 3059 2628 3993 2526 1885 1642 1341 1327
23 2 63 44 19 77 46 1 37 0 0 0 6 0 0 1 0 0 0 0 27 17 0 2 0 0 0 0 0 112 524 1304 1681 1458 1510 2434 2359 2981 2845 1931 1713 1383 1171 1622
39 24 46 22 47 153 133 68 27 16 117 88 31 0 0 0 0 0 0 3 47 24 0 1 0 0 0 4 401 332 483 765 974 1658 2227 2751 3001 3408 2677 2197 1927 1847 1791 1864
28 45 75 36 15 68 217 93 158 216 118 0 30 12 8 2 34 0 7 37 26 139 30 75 330 542 681 1076 565 705 1043 1863 2512 2449 2849 3044 3443 3612 3007 2885 2547 2340 2418 2103
43 33 50 119 101 124 207 247 173 125 96 36 75 14 102 197 18 1 5 50 256 67 4 242 1025 946 887 1869 2245 2564 2153 2663 2547 2445 2673 3009 3126 3286 3129 2749 2251 2351 2345 2070
100 96 130 39 57 91 148 179 179 67 47 102 81 63 169 0 27 0 0 116 67 228 1189 1044 1109 2011 1695 1574 2150 2714 2695 2201 2289 2716 2957 3089 2659 2603 2278 1908 1703 1946 1748 1646
48 24 34 2 64 137 152 23 71 206 157 94 118 11 53 0 13 0 0 0 1 0 1592 1222 1123 1570 1908 2188 2030 2193 2237 2327 2324 2157 2099 2087 1697 1678 1792 1643 1734 1686 1532 1663
0 14 0 69 47 9 3 0 18 130 207 133 48 36 54 0 0 44 1 3 4 2 1429 1455 1747 2151 2233 2072 2008 2010 1991 1956 1783 1643 1828 1705 1956 2013 1866 1695 1803 1447 1143 924
3 16 42 75 59 71 103 49 43 89 100 95 0 0 0 57 0 12 0 0 1 39 1166 1455 1786 2084 2068 1730 1725 1649 1852 1743 1706 1557 1797 1893 1878 1791 1617 1486 1273 928 957 368
20 105 30 44 39 42 53 29 8 0 28 8 3 3 0 11 0 0 13 1 0 0 59 1338 1264 1654 1413 1437 1311 1426 1456 1464 1606 1552 1636 1628 1425 1295 1258 1175 294 238 657 644
0 37 31 16 18 16 40 33 94 115 79 28 12 66 84 7 6 63 7 1 0 0 0 882 1137 1343 1456 1472 1191 1188 1371 1299 1260 1084 867 678 613 437 465 578 449 519 784 969
0 0 0 58 11 0 16 36 139 62 163 148 140 132 82 73 64 0 0 0 0 0 0 512 1512 1530 1624 1326 890 940 997 774 638 490 387 461 406 533 649 373 448 493 1007 1250
0 0 0 0 0 6 2 39 3 3 3 41 170 208 108 46 27 47 55 3 0 0 627 838 1688 1627 1625 1325 911 752 590 529 360 339 603 471 309 350 342 536 529 795 1076 900
36 0 0 0 0 0 26 0 0 5 0 21 23 23 91 181 23 88 210 160 136 218 309 805 1184 1506 2051 1034 685 634 565 449 340 410 345 363 258 228 380 613 618 827 853 865
170 0 0 0 0 0 0 0 0 0 0 0 0 0 0 5 13 66 67 14 47 155 348 495 1045 1195 1617 1224 747 668 519 412 555 433 257 357 180 387 609 665 786 1098 779 761
42 23 0 40 0 16 0 0 0 0 0 0 0 0 0 0 0 1 0 13 164 171 473 605 826 1485 1494 826 724 637 872 615 522 375 219 430 405 37 594 667 641 905 971 916
87 43 50 0 57 48 6 0 0 0 0 5 3 4 0 0 0 4 0 196 251 301 447 767 960 1664 1050 622 636 1041 913 691 579 515 487 408 559 149 752 481 534 1219 906 825
62 5 9 39 0 0 6 0 0 0 2 2 6 39 21 34 1 2 0 268 347 445 427 851 1410 990 646 544 928 914 771 668 614 582 471 601 511 720 618 505 1093 785 743 900
132 31 64 20 7 22 0 0 0 0 6 9 3 1 7 0 4 16 17 188 349 427 516 773 833 632 651 437 833 659 634 563 470 488 397 420 521 789 339 281 395 319 278 283
108 35 72 64 44 0 0 0 0 0 1 10 1 0 4 1 2 41 250 223 244 392 422 481 644 450 190 255 766 762 576 483 580 661 255 297 507 648 721 94 65 26 31 88

GFSCGP_con_mucape_045.txt.gz
CAPE
0 0 0 0 0 0 0 0 0 0 0 0 0 0 0 0 0 0 0 0 0 0 0 0 0 0 20 72 327 278 301 1177 1652 2228 2331 1900 1660 1863 1906 1844 1492 1290 1845 1793
0 0 0 0 0 0 0 0 0 0 0 0 0 0 0 0 0 0 0 0 0 0 0 0 0 0 8 48 586 393 201 298 1557 1565 1276 864 954 957 980 683 1109 1220 1942 1922
0 0 0 0 0 0 0 0 0 0 0 0 0 0 0 0 0 0 0 0 0 0 0 0 0 0 0 103 519 293 169 125 190 516 500 365 261 404 771 980 711 1464 2127 1984
0 0 0 0 0 0 0 0 0 0 0 0 0 0 0 0 0 0 0 0 0 0 0 0 0 0 12 533 494 384 311 340 409 342 247 427 237 244 98 597 1352 1903 2174 1885
0 0 0 0 0 0 0 0 0 0 0 0 0 0 0 0 0 0 0 0 0 0 0 0 0 0 0 118 266 339 413 203 143 311 248 255 249 482 595 1272 1729 1864 1839 1842
0 0 0 0 0 21 5 1 0 1 0 0 0 0 0 0 0 0 0 0 0 0 0 0 0 0 0 0 0 0 253 190 32 59 677 715 790 858 1065 2029 1776 1641 1704 1742
0 0 0 0 2 1 1 5 0 0 0 0 0 0 0 0 0 0 0 0 0 0 0 0 0 0 0 0 0 0 0 23 275 130 677 581 691 719 1215 2156 1828 1666 1635 1624
0 0 0 3 5 0 0 27 0 0 0 0 0 0 0 0 0 0 0 0 0 0 0 0 0 0 0 0 0 0 0 0 185 549 1377 1347 1204 2025 1739 2111 1779 1690 1685 1599
0 0 0 0 0 15 0 0 36 4 2 0 0 0 0 2 4 0 0 0 0 0 0 0 0 0 0 0 0 0 0 0 795 742 1328 1534 1220 1851 2184 2117 1904 1735 1572 1467
0 0 0 0 0 10 35 43 34 31 2 0 0 0 20 20 1 18 10 0 0 0 0 0 0 0 0 0 0 0 9 499 1046 1001 951 1271 1580 2224 2174 2089 1998 1958 1564 1145
0 0 0 0 0 0 5 24 12 3 9 0 0 0 173 3 10 7 10 4 0 29 9 1 21 380 754 223 269 49 385 681 997 1365 1642 1992 2135 2512 2601 2475 2227 1344 1401 1456
0 0 0 0 0 0 15 74 15 27 2 0 0 0 44 2 0 0 12 5 0 38 4 0 486 936 1946 1454 1339 986 1491 1667 1768 1989 2115 2303 2404 2627 2503 2023 1934 1760 1796 1749
0 0 0 0 0 0 0 16 6 3 1 3 12 0 127 2 0 0 0 0 0 33 1 0 27 467 1541 1567 1939 1986 1911 1836 1909 1978 2192 2365 2330 2415 2157 2049 1938 1756 1523 1297
0 0 0 0 1 0 0 0 0 7 1 12 16 30 38 13 0 0 0 10 14 7 6 20 0 108 975 1290 1961 1947 2103 2081 1969 2049 2178 2195 2028 2167 1805 1674 1471 1211 1023 825
4 0 0 0 5 4 7 0 10 5 5 16 0 15 0 14 18 1 16 7 20 1 23 9 240 518 1198 1303 1730 1659 1799 1877 1875 1819 1884 1812 1695 1657 1720 1066 1123 1036 455 116
0 0 0 0 0 1 17 0 0 6 31 19 35 31 1 0 1 0 0 0 0 0 0 8 969 893 1114 656 673 1499 1672 1836 1724 1553 1663 1255 1393 1089 895 695 299 561 115 173
0 0 0 0 0 0 0 1 60 56 27 16 23 7 12 63 12 2 0 4 0 0 0 125 777 897 349 406 928 1241 1498 1438 1398 1239 1120 1027 933 799 611 68 40 86 74 94
0 0 0 0 0 0 0 7 21 1 0 44 25 113 161 133 109 90 47 129 63 0 276 368 635 445 95 353 923 1032 1304 1227 973 900 875 852 665 344 43 136 46 148 88 134
0 0 0 0 0 0 0 0 0 0 0 16 9 7 1 1 15 41 57 72 62 252 69 0 366 237 0 180 597 938 752 693 665 527 356 238 66 30 165 155 123 132 139 196
3 9 0 0 0 0 22 0 0 0 0 0 0 0 0 0 0 0 19 14 24 6 44 91 339 271 93 294 607 535 395 162 136 178 168 177 175 93 282 124 191 118 86 146
19 9 0 0 0 0 0 0 0 0 0 0 0 0 0 0 0 0 0 0 2 0 0 188 179 125 465 381 444 86 52 80 197 216 151 109 82 165 109 188 135 109 160 214
9 7 0 0 0 0 0 0 0 0 0 0 0 0 1 1 0 0 0 0 0 0 11 222 132 272 644 345 194 49 79 117 96 117 56 89 94 120 131 134 211 159 202 179
16 1 0 21 0 10 0 0 0 2 0 0 1 11 0 1 0 0 0 0 0 26 144 262 291 325 664 450 181 94 80 57 59 127 98 82 93 108 96 92 169 151 160 148
4 17 0 3 0 2 31 31 0 0 0 0 0 1 2 3 12 21 7 0 0 33 140 177 394 30 272 218 119 133 122 73 51 70 115 75 248 97 40 76 102 25 90 93
0 3 9 13 0 4 9 0 0 0 0 0 6 1 4 0 1 0 0 0 121 277 160 180 323 370 284 297 224 220 225 48 57 25 109 142 178 62 81 59 109 114 89 139
35 4 15 7 4 7 0 0 0 0 0 0 12 3 6 11 1 1 1 11 201 203 246 203 269 338 367 324 270 295 170 91 20 20 91 240 157 89 79 72 59 82 47 131

GFSCGP_con_mucape_048.txt.gz
CAPE
0 0 0 0 0 0 0 0 0 0 0 0 0 0 0 0 0 0 0 0 0 0 0 0 0 10 7 18 15 33 0 110 1224 1392 1559 1556 1554 1556 1233 1189 1449 1703 1714 1606
0 0 0 0 0 0 0 0 0 0 0 0 0 0 0 0 0 0 0 0 0 0 0 0 0 0 0 58 19 0 21 387 1662 1540 1583 1451 1423 1229 1118 1130 1223 1223 1245 1471
0 0 0 0 0 0 0 0 0 0 0 0 0 0 0 0 0 0 0 0 0 0 0 0 0 0 0 0 21 94 24 382 1557 1586 1647 1468 1290 799 772 879 1046 1142 1137 1395
0 0 0 0 0 0 0 0 0 0 0 0 0 0 0 0 0 0 0 0 0 0 0 0 0 0 0 0 0 56 139 111 1060 1277 914 786 458 326 300 291 480 600 1013 1412
0 0 0 0 0 0 0 0 0 0 0 0 0 0 0 0 0 0 0 0 0 0 0 0 0 0 0 0 153 257 269 202 310 594 360 449 278 143 76 74 128 415 1261 1512
0 0 0 0 0 0 0 0 0 0 0 0 0 0 0 0 0 0 0 0 0 0 0 0 0 0 0 0 0 296 350 259 156 102 169 90 54 8 13 323 638 982 1380 1655
0 0 0 0 0 0 0 0 0 0 0 0 0 0 0 0 0 0 0 0 0 0 0 0 0 0 0 0 0 33 245 131 92 79 50 104 13 0 4 515 975 1293 1617 1756
0 0 0 0 0 0 0 0 0 0 0 0 1 0 0 0 0 0 0 0 0 0 0 0 0 0 0 0 0 0 1 48 42 15 0 94 138 68 257 824 1194 1406 1588 1645
0 0 0 0 0 0 0 0 0 19 27 0 0 0 0 0 0 0 0 0 0 0 0 0 0 0 0 0 0 0 0 0 0 35 36 87 235 331 728 1129 1468 1560 1557 1619
0 0 0 0 0 0 0 0 5 12 0 0 0 0 0 0 0 0 0 0 0 0 0 0 0 0 3 228 3 0 0 0 0 0 134 456 512 1120 1200 1473 1766 1929 1822 1705
0 0 0 0 0 0 0 0 12 6 10 26 0 0 24 43 0 0 0 0 0 0 0 0 0 0 3 539 331 0 0 0 22 167 416 809 852 1215 1413 1667 1883 1825 1742 1687
0 0 0 0 0 0 0 10 12 21 78 92 57 0 0 0 0 0 0 0 0 1 0 0 0 0 1 666 597 540 0 92 427 585 829 1396 1487 1370 1364 1536 1753 1820 1845 1484
0 0 0 0 0 0 1 0 2 12 5 0 3 0 3 2 0 0 0 0 9 7 0 2 0 0 1 197 700 667 524 768 1117 1249 1350 1606 1814 1686 1757 2093 2237 2043 1111 1283
0 0 0 0 0 0 0 1 0 15 1 0 0 0 0 0 0 0 0 0 122 68 57 56 2 0 0 8 308 1088 1337 1358 1608 1777 1872 1991 2194 2220 2315 2422 1886 1325 1383 1410
0 0 0 0 0 0 0 2 9 15 2 0 0 0 4 0 15 0 0 0 12 31 33 48 0 25 11 28 149 748 1749 1824 1916 1931 2054 2282 2328 2320 2072 1682 1387 1349 1320 868
0 0 0 0 0 0 0 0 0 0 0 9 13 0 17 0 55 54 3 8 30 29 4 39 2 58 165 183 495 194 1320 1565 1772 1774 1863 1827 1799 1641 1765 1550 1166 821 694 549
0 0 0 0 0 0 0 4 13 14 6 0 0 0 0 21 10 4 63 59 62 23 114 124 243 351 260 566 494 0 583 1320 1406 1437 1414 1499 1623 1451 1385 1100 517 867 495 71
0 0 0 0 0 0 0 2 3 0 0 0 0 1 0 0 0 0 0 63 76 84 101 68 186 133 74 158 157 0 570 1208 1230 1136 1232 1118 1017 955 814 602 238 19 39 42
14 13 0 0 0 0 0 0 0 0 0 0 0 0 0 0 0 0 0 31 47 73 66 17 120 139 33 17 83 39 586 1068 1090 1184 1023 922 802 683 269 21 5 30 86 62
15 23 18 2 0 0 0 1 0 0 0 0 0 0 0 0 0 0 0 0 0 6 39 21 123 100 6 0 4 190 595 743 880 833 703 737 635 2 0 20 26 43 64 72
22 28 0 0 0 0 0 1 0 0 0 0 0 0 0 0 0 0 0 0 0 0 4 30 198 222 87 58 136 282 528 569 565 503 310 149 19 23 29 21 13 63 76 76
12 3 0 0 0 0 0 3 0 0 0 0 0 0 0 0 7 6 7 0 0 0 0 46 276 99 48 101 159 410 495 398 319 180 38 4 13 57 98 33 39 47 68 37
3 14 0 0 0 1 0 19 37 2 0 0 0 0 2 2 0 0 0 0 0 0 1 61 237 263 3 163 132 177 139 151 152 56 11 10 14 35 34 95 50 68 52 17
1 4 8 0 3 0 10 17 15 0 0 0 0 0 0 0 1 0 0 0 0 0 77 110 249 0 125 157 87 151 167 223 63 19 29 32 25 36 36 53 58 70 51 17
1 1 0 0 1 3 2 11 0 0 0 0 0 0 0 0 0 0 0 0 0 2 104 102 153 231 151 113 122 236 157 122 45 32 19 22 32 26 33 32 15 9 28 23
22 39 0 1 22 7 0 0 0 0 0 0 0 0 1 0 2 2 5 50 75 61 63 76 185 95 151 219 174 129 170 149 79 28 22 24 20 3 1 0 0 0 12 29